User: anonymous   Login
Location: Unspecified
(0.0000°N, 0.0000°E)
Time: 18:23:23
(UTC+00:00)
Language:

ISS - Orbit

View from above orbital plane
View from above orbital plane
View from above satellite
View from above satellite

Ground track
Ground track

The orbit data is extracted from the following two-line orbital elements,

1 25544U 98067A   19112.53559226  .00016717  00000-0  10270-3 0  9031
2 25544  51.6371 277.8351 0001420 222.0970 138.0073 15.52594629  6609
Epoch (UTC): 22 April 2019 12:51:15
Eccentricity: 0.0001420
inclination: 51.6371°
perigee height: 408 km
apogee height: 410 km
right ascension of ascending node: 277.8351°
argument of perigee: 222.0970°
revolutions per day: 15.52594629
mean anomaly at epoch: 138.0073°
orbit number at epoch: 660

The dashed part of the orbit path shows where the satellite is in the earth's shadow,  

DLR